Content
SEND FEEDBACK

Daily
Averages
Monthly
Summary
China

NANNING, CHINA


Home > Asia > China
Elevation: 239 feet     Latitude: 22 49N     Longitude: 108 21E

WEATHER
 
SELECT A DAY
Number of Records: 164,351;   Date Range: 7/1/96 - 7/9/14
 
SHARE

PRINT THIS DATA

[ ← Previous Day ]
WEATHER ALMANAC - JANUARY 31, 2013
[ Next Day → ]
[ °C ]   °F
Weather ElementAverageHighLow
Temperature66.8 °F68 °F (11:00 am)64.4 °F (8:00 am)
Dewpoint64.9 °F66.2 °F (10:00 am)62 °F (8:00 am)
Humidity92.8 %100 % (8:00 am)81 % (11:00 am)
Barometer30.08 in30.17 in (11:00 am)30.01 in (6:00 pm)
Wind Speed6.5 mph13.4 mph (2:00 pm)
Weather ElementAverage
Visibility4.2 mi
Wind DirectionESE (114.2 °)

Weather ElementTotal
Precipitation---
Cooling Degree Days1.2 (Base 65)
Growing Degree Days16.2 (Base 50)
Averaged from 31 records on January 31, 2013
WEATHER CONDITIONS BREAKOUT
WIND DIRECTION BREAKOUT
WEATHER BY HOUR - JANUARY 31, 2013
[ °C ]   °F
Local TimeTemperatureDewpointHumidityBarometerVisibilityWind DirectionWind SpeedGust SpeedPrecipitationEventsConditions
1:00 AM66.2 °F64.4 °F94 %30.09 in4.3 miSSE (150°)6.7 mphOvercast
2:00 AM66.0 °F63.0 °F87 %30.10 in6.0 miESE (110°)8.9 mphClear
2:00 AM66.2 °F64.4 °F94 %30.09 in3.7 miSSE (150°)4.5 mphOvercast
3:00 AM66.2 °F64.4 °F94 %30.06 in3.7 miSSE (150°)6.7 mph
4:00 AM66.2 °F64.4 °F94 %30.06 in3.7 miSSE (150°)8.9 mph
5:00 AM66.0 °F63.0 °F85 %30.08 in7.0 miNE (40°)2.2 mphOvercast
5:00 AM66.2 °F64.4 °F94 %30.06 in3.7 miSSE (150°)6.7 mphOvercast
6:00 AM66.2 °F64.4 °F94 %30.06 in3.1 miSE (130°)6.7 mphOvercast
7:00 AM66.2 °F64.4 °F94 %30.09 in3.1 miSE (140°)6.7 mphOvercast
8:00 AM65.0 °F62.0 °F88 %30.14 in3.0 miNE (40°)2.2 mphMist
8:00 AM64.4 °F64.4 °F100 %30.12 in3.1 miESE (110°)4.5 mphOvercast
9:00 AM66.2 °F64.4 °F94 %30.12 in3.1 miESE (120°)4.5 mphOvercast
10:00 AM66.2 °F66.2 °F100 %30.15 in3.7 miESE (120°)6.7 mphOvercast
11:00 AM68.0 °F64.0 °F81 %30.17 in5.0 miENE (70°)6.7 mphMist
11:00 AM68.0 °F66.2 °F94 %30.15 in5.0 miSSE (160°)6.7 mphOvercast
12:00 PM68.0 °F66.2 °F94 %30.15 in5.6 miSSE (150°)6.7 mphOvercast
1:00 PM68.0 °F66.2 °F94 %30.09 in4.3 miSSE (150°)8.9 mphOvercast
2:00 PM68.0 °F64.0 °F83 %30.06 in6.0 miENE (70°)11.2 mphRainLight Rain
2:00 PM68.0 °F66.2 °F94 %30.04 in4.3 miSSE (150°)13.4 mphScattered Clouds
3:00 PM68.0 °F66.2 °F94 %30.04 in4.3 miSouth (180°)8.9 mphRainLight Rain
4:00 PM68.0 °F66.2 °F94 %30.04 in3.7 miSSE (160°)6.7 mphRainLight Rain
5:00 PM68.0 °F64.0 °F84 %30.05 in6.0 miNE (40°)6.7 mphRainLight Rain
5:00 PM68.0 °F66.2 °F94 %30.04 in3.7 miSSE (160°)8.9 mphRainLight Rain
6:00 PM68.0 °F66.2 °F94 %30.01 in3.1 miSSE (150°)8.9 mphOvercast
7:00 PM66.2 °F66.2 °F100 %30.04 in3.1 miSE (140°)8.9 mphOvercast
8:00 PM67.0 °F64.0 °F86 %30.07 in7.0 miSE (140°)4.5 mphClear
8:00 PM66.2 °F66.2 °F100 %30.04 in3.1 miSSE (150°)6.7 mphScattered Clouds
9:00 PM66.2 °F64.4 °F94 %30.06 in3.1 miVariable2.2 mphScattered Clouds
10:00 PM66.2 °F66.2 °F100 %30.06 in3.1 miVariable2.2 mphScattered Clouds
11:00 PM67.0 °F64.0 °F86 %30.10 in7.0 miESE (110°)4.5 mphOvercast
11:00 PM66.2 °F66.2 °F100 %30.09 in3.1 miVariable2.2 mphMostly Cloudy
Hourly data recorded from ZGNN, located miles away from Nanning, China







STORIES FROM OUR PARTNERS